Weather History for KAEG - January, 2014

Change the Weather History Date:

Friday, January 24, 2014

  Actual Average Record
Temperature  
Mean Temperature 24 °F -  
Max Temperature 39 °F - - ()
Min Temperature 9 °F - - ()
Degree Days  
Heating Degree Days 41    
Moisture  
Dew Point 10 °F    
Average Humidity 62    
Maximum Humidity 85    
Minimum Humidity 39    
Precipitation  
Precipitation 0.00 in - - ()
Sea Level Pressure  
Sea Level Pressure 30.45 in    
Wind  
Wind Speed 7 mph (NNW)    
Max Wind Speed 17 mph    
Max Gust Speed -    
Visibility 10 miles    
Events      
T = Trace of Precipitation, MM = Missing Value Source: NWS Daily Summary

Daily Weather History Graph

Daily Weather History Graph

Search for Another Location

Airport or City:

Trip Planner

Search our weather history database for the weather conditions in past years. The results will help you decide how hot, cold, wet, or windy it might be!

Date:

Astronomy

Jan. 24, 2014 Rise Set
Actual Time 7:11 AM MST 5:27 PM MST
Civil Twilight 6:44 AM MST 5:54 PM MST
Nautical Twilight 6:13 AM MST 6:25 PM MST
Astronomical Twilight 5:43 AM MST 6:55 PM MST
Moon 12:44 AM MST (1/24) 11:46 AM MST (1/24)
Length of Visible Light 11h 10m
Length of Day
10h 16m
Last Quarter, 44% of the Moon is Illuminated
Jan 24
Last Quarter
Jan 30
New
Feb 6
First Quarter
Feb 14
Full
Feb 22
Last Quarter

Hourly Weather History & Observations

Time (MST) Temp. Windchill Dew Point Humidity Pressure Visibility Wind Dir Wind Speed Gust Speed Precip Events Conditions
12:15 AM 14.0 °F 2.0 °F 8.4 °F 78% 30.50 in 10.0 mi North 9.2 mph - N/A   Clear
12:35 AM 13.1 °F 0.9 °F 7.9 °F 80% 30.50 in 10.0 mi North 9.2 mph - N/A   Clear
12:55 AM 13.1 °F 2.8 °F 7.9 °F 80% 30.50 in 10.0 mi North 6.9 mph - N/A   Clear
1:15 AM 10.2 °F 2.0 °F 5.7 °F 82% 30.50 in 10.0 mi NNW 4.6 mph - N/A   Clear
1:35 AM 11.3 °F 5.1 °F 6.4 °F 81% 30.50 in 10.0 mi NNW 3.5 mph - N/A   Clear
1:55 AM 9.5 °F -1.5 °F 5.4 °F 83% 30.50 in 10.0 mi North 6.9 mph - N/A   Clear
2:15 AM 12.0 °F 1.5 °F 7.0 °F 80% 30.51 in 10.0 mi North 6.9 mph - N/A   Clear
2:35 AM 12.6 °F 1.1 °F 7.7 °F 81% 30.51 in 10.0 mi North 8.1 mph - N/A   Clear
2:55 AM 12.0 °F 2.7 °F 7.3 °F 81% 30.51 in 10.0 mi North 5.8 mph - N/A   Clear
3:15 AM 11.8 °F 2.5 °F 7.2 °F 81% 30.51 in 10.0 mi NNW 5.8 mph - N/A   Clear
3:35 AM 11.5 °F 2.1 °F 7.0 °F 82% 30.50 in 10.0 mi NW 5.8 mph - N/A   Clear
3:55 AM 10.4 °F -1.5 °F 5.9 °F 82% 30.50 in 10.0 mi WNW 8.1 mph - N/A   Clear
4:15 AM 10.4 °F 2.2 °F 5.9 °F 82% 30.50 in 10.0 mi West 4.6 mph - N/A   Clear
4:35 AM 10.6 °F - 6.3 °F 83% 30.50 in 10.0 mi Calm Calm - N/A   Clear
5:48 AM 10.4 °F - 6.8 °F 85% 30.51 in 10.0 mi North - - N/A   Partly Cloudy
5:50 AM 10.4 °F 2.2 °F 5.0 °F 79% 30.50 in 10.0 mi West 4.6 mph - N/A   Clear
7:48 AM 10.4 °F - 6.8 °F 85% 30.50 in 10.0 mi Calm Calm - N/A   Mostly Cloudy
8:48 AM 17.6 °F - 10.4 °F 73% 30.51 in 10.0 mi Calm Calm - N/A   Mostly Cloudy
9:48 AM 21.2 °F - 12.2 °F 68% 30.53 in 10.0 mi Calm Calm - N/A   Mostly Cloudy
10:48 AM 26.6 °F 21.2 °F 12.2 °F 55% 30.53 in 10.0 mi East 4.6 mph - N/A   Mostly Cloudy
11:48 AM 32.0 °F 27.5 °F 14.0 °F 48% 30.50 in 10.0 mi ENE 4.6 mph - N/A   Mostly Cloudy
12:50 PM 37.4 °F - 15.8 °F 41% 30.44 in 10.0 mi Calm Calm - N/A   Mostly Cloudy
1:50 PM 39.2 °F 34.2 °F 15.8 °F 39% 30.41 in 10.0 mi West 6.9 mph - N/A   Mostly Cloudy
2:50 PM 39.2 °F 34.2 °F 15.8 °F 39% 30.39 in 10.0 mi Variable 6.9 mph - N/A   Mostly Cloudy
3:50 PM 39.2 °F 34.2 °F 15.8 °F 39% 30.37 in 10.0 mi Variable 6.9 mph - N/A   Mostly Cloudy
4:50 PM 37.4 °F 32.1 °F 15.8 °F 41% 30.37 in 10.0 mi Variable 6.9 mph - N/A   Mostly Cloudy
5:50 PM 32.0 °F 25.6 °F 12.2 °F 44% 30.38 in 10.0 mi Variable 6.9 mph - N/A   Mostly Cloudy
6:48 PM 26.6 °F - 8.6 °F 47% 30.39 in 10.0 mi Calm Calm - N/A   Clear
7:50 PM 23.0 °F 15.8 °F 8.6 °F 54% 30.40 in 10.0 mi West 5.8 mph - N/A   Clear
8:48 PM 26.6 °F 20.0 °F 10.4 °F 51% 30.40 in 10.0 mi Variable 5.8 mph - N/A   Clear
9:15 PM 27.9 °F 19.1 °F 9.7 °F 47% 30.39 in 10.0 mi WNW 9.2 mph - N/A   Clear
9:35 PM 27.9 °F 16.8 °F 9.0 °F 45% 30.39 in 10.0 mi WNW 13.8 mph - N/A   Clear
9:55 PM 31.1 °F 20.9 °F 11.1 °F 43% 30.39 in 10.0 mi NW 13.8 mph - N/A   Clear
10:15 PM 31.3 °F 20.7 °F 11.8 °F 45% 30.39 in 10.0 mi NW 15.0 mph - N/A   Clear
10:35 PM 32.0 °F 20.8 °F 12.2 °F 44% 30.38 in 10.0 mi NW 17.3 mph - N/A   Clear
10:55 PM 32.0 °F 20.8 °F 11.8 °F 43% 30.38 in 10.0 mi NW 17.3 mph - N/A   Clear
11:15 PM 32.0 °F 22.1 °F 11.1 °F 42% 30.38 in 10.0 mi NW 13.8 mph - N/A   Clear
11:35 PM 32.0 °F 22.1 °F 10.4 °F 41% 30.38 in 10.0 mi NNW 13.8 mph - N/A   Clear
11:55 PM 32.0 °F 22.5 °F 10.4 °F 41% 30.38 in 10.0 mi NW 12.7 mph - N/A   Clear